Voltar ao catálogo

KUIPER-00200

AtivoComunicaçõesLEO
NORAD 67772·PAYLOAD·🇺🇸 United States

Lançado Feb 12, 2026 de Guiana Space Centre

Loading…

Próximas Passagens (próximas 24 horas)

TLE

AtualizadoSource: CelesTrak SupGP

Época: Sep 14, 2026, 21:23 UTC

1 67772C 26030J   26257.89160880  .00007023  00000+0  91949-3 0  2575
2 67772  51.8974  68.9850 0000678 106.8244  27.8509 14.79915974    15

Acompanhe KUIPER-00200 em tempo real com AllMySat

Download on the App Store